This is the latest recevied weather packets stored in our database for station/object W0BJ. If no packets are shown the sender has not sent any weather packets the latest 10 day(s).
| Time | Temp. | Humidity | Pressure | Rain* | Wind** | Luminosity | Snow |
|---|---|---|---|---|---|---|---|
| 1778023745 | 8.33° C | 88% | 1013.8 hPa | 0.51 mm | - | - | - |
| 1778023397 | 8.33° C | 88% | 1013.8 hPa | 0.51 mm | - | - | - |
| 1778023145 | 8.33° C | 87% | 1014 hPa | 0.51 mm | - | - | - |
| 1778022545 | 8.89° C | 86% | 1013.4 hPa | 0.25 mm | - | - | - |
| 1778022500 | 8.89° C | 87% | 1013.3 hPa | 0.25 mm | - | - | - |
| 1778022145 | 8.89° C | 87% | 1012.9 hPa | 0 mm | - | - | - |
| 1778021599 | 8.89° C | 85% | 1013.6 hPa | 0 mm | - | - | - |
| 1778021545 | 8.89° C | 85% | 1013.3 hPa | 0 mm | - | - | - |
| 1778020944 | 8.89° C | 85% | 1012.8 hPa | 0 mm | - | - | - |
| 1778020698 | 8.89° C | 86% | 1012.9 hPa | 0 mm | - | - | - |
| 1778020344 | 8.89° C | 86% | 1012.8 hPa | 0 mm | - | - | - |
| 1778019798 | 8.89° C | 86% | 1012.6 hPa | 0 mm | - | - | - |
| 1778019744 | 8.89° C | 86% | 1012.7 hPa | 0 mm | - | - | - |
| 1778019144 | 9.44° C | 86% | 1012.7 hPa | 0 mm | - | - | - |
| 1778018898 | 9.44° C | 86% | 1012.6 hPa | 0 mm | - | - | - |
| 1778018544 | 9.44° C | 86% | 1012.7 hPa | 0 mm | - | - | - |
| 1778017997 | 9.44° C | 88% | 1012.6 hPa | 0 mm | - | - | - |
| 1778017943 | 9.44° C | 88% | 1012.8 hPa | 0 mm | - | - | - |
| 1778017343 | 9.44° C | 87% | 1013.1 hPa | 0.25 mm | - | - | - |
| 1778017097 | 9.44° C | 87% | 1013.2 hPa | 0.25 mm | - | - | - |
| 1778016744 | 9.44° C | 87% | 1013.1 hPa | 0.51 mm | - | - | - |
| 1778016198 | 9.44° C | 88% | 1012.9 hPa | 0.51 mm | - | - | - |
| 1778016144 | 9.44° C | 89% | 1012.7 hPa | 0.51 mm | - | - | - |
| 1778015544 | 8.89° C | 88% | 1013.2 hPa | 1.02 mm | - | - | - |
| 1778015298 | 8.89° C | 88% | 1013.2 hPa | 1.52 mm | - | - | - |
* Rain latest hour (hover to see other rain measurements)
** Current wind speed in m/s (hover to see current wind gust speed)